Regional Weather Roundup
Issued by NWS

Home | Current Version | Previous Version | Graphics & Text | Print | Product List | Glossary Off
Versions: 1 2 3 4 5 6 7 8 9 10 11 12 13 14 15 16 17 18 19 20 21 22 23 24 25 26 27 28 29 30 31 32 33 34 35 36 37 38 39 40 41 42 43 44 45 46 47 48 49 50

879
ASUS43 KFSD 270310
RWRSD

WEATHER ROUNDUP FOR SOUTH DAKOTA
NATIONAL WEATHER SERVICE SIOUX FALLS SD
900 PM CST SUN FEB 26 2017

NOTE: "FAIR" INDICATES FEW OR NO CLOUDS BELOW 12,000 FEET WITH NO
SIGNIFICANT WEATHER AND/OR OBSTRUCTIONS TO VISIBILITY.


SDZ001>005-009-010-012>017-270400-
NORTHWEST AND NORTH CENTRAL SOUTH DAKOTA

CITY           SKY/WX    TMP DP  RH WIND       PRES   REMARKS
BUFFALO          N/A     21  18  88 SE5       29.70S WCI  15
FAITH            N/A     27  22  81 N12       29.78R WCI  17
MOBRIDGE       MOCLDY    31  25  78 CALM      29.77R
$$

SDZ012>016-024>037-041>051-057-063-072>074-270400-
SOUTHWEST AND SOUTH CENTRAL SOUTH DAKOTA

CITY           SKY/WX    TMP DP  RH WIND       PRES   REMARKS
RAPID CTY ARPT FAIR      23  16  74 CALM      29.76S
PIERRE         MOCLDY    32  17  54 SW6       29.80R WCI  26
CUSTER         FAIR      16   5  62 W6        29.69S WCI   7
ELLSWORTH AFB  FAIR      29  14  53 NE3       29.76R
PHILIP         FAIR      26  14  60 SW7       29.81R WCI  18
PINE RIDGE     FAIR      18  11  74 W5        29.82S WCI  11
SPEARFISH      FAIR      25  12  58 S10       29.73F WCI  15
WINNER         FAIR      28  17  63 SW13      29.85R WCI  17
$$

SDZ004>011-016>023-039-040-270400-
NORTHEAST SOUTH DAKOTA

CITY           SKY/WX    TMP DP  RH WIND       PRES   REMARKS
ABERDEEN       FAIR      25  20  81 NE3       29.83S
WATERTOWN      CLOUDY    26  21  81 SE9       29.82S WCI  17
SISSETON         N/A     22  19  89 SE7       29.88R WCI  13
$$

SDZ017-020-022-023-036>040-048>070-270400-
SOUTHEAST SOUTH DAKOTA

CITY           SKY/WX    TMP DP  RH WIND       PRES   REMARKS
SIOUX FALLS    FAIR      30  23  75 SW9       29.90R WCI  22
HURON          MOCLDY    32  20  61 SW10      29.83R WCI  24
CHAMBERLAIN    FAIR      32  21  64 SW12      29.84S WCI  23
MITCHELL       FAIR      32  23  69 SW10      29.87S WCI  24
YANKTON        FAIR      28  18  64 SW6       29.92S WCI  22
$$

ABBREVIATIONS USED IN REMARKS
   TC - TEMPERATURE IN CELSIUS
  WCI - WIND CHILL INDEX
   HX - HEAT INDEX
  VSB - VISIBILITY





USA.gov is the U.S. government's official web portal to all federal, state and local government web resources and services.